Regional Weather Roundup
Issued by NWS

Home | Current Version | Previous Version | Text Only | Print | Product List | Glossary On
Versions: 1 2 3 4 5 6 7 8 9 10 11 12 13 14 15 16 17 18 19 20 21 22 23 24 25 26 27 28 29 30 31 32 33 34 35 36 37 38 39 40 41 42 43 44 45 46 47 48 49 50
000
ASHW40 PHFO 261612
RWRHI

WEATHER ROUNDUP FOR HAWAII
NATIONAL WEATHER SERVICE HONOLULU HI
600 AM HST MON SEP 26 2016

THIS IS AN AUTOMATED REPORT THAT HAS NOT BEEN QUALITY CONTROLLED.

NOTE..."FAIR" INDICATES FEW OR NO CLOUDS BELOW 12,000 FEET WITH NO
SIGNIFICANT WEATHER AND/OR OBSTRUCTIONS TO VISIBILITY.

* - THESE SITES REPORT LIMITED FIELDS

HIZ001>004-261700-
KAUAI-NIIHAU-

CITY           SKY/WX    TMP DP  RH WIND       PRES   REMARKS
LIHUE APT      PTCLDY    78  69  73 NE17      30.03R
PORT ALLEN*      N/A     77 N/A N/A NE12        N/A
POIPU*           N/A     77 N/A N/A NE8G15      N/A
PRINCEVILLE*     N/A     73 N/A N/A SE3         N/A
KOKOLE POINT*  NOT AVBL
MOLOAA DAIRY*    N/A     75  70  83 E3          N/A
WAIMEA HTS*    NOT AVBL
PUU OPAE*      NOT AVBL
PUU LUA*       NOT AVBL
MAKAHA RIDGE*  NOT AVBL
$$

HIZ005>011-261700-
OAHU-

CITY           SKY/WX    TMP DP  RH WIND       PRES   REMARKS
HONOLULU       MOCLDY    74  70  87 E6        29.99R
KALAELOA       LGT RAIN  75  68  78 NE7       30.01R
KANEOHE MCB    MOCLDY    78  71  79 NE12      29.98S
WHEELER FIELD  LGT RAIN  72  69  92 NW6       30.01R
BELLOWS*       NOT AVBL
WHEELER*       NOT AVBL
WAIANAE HARBOR NOT AVBL
DILLINGHAM*      N/A     72  66  83 MISG        N/A
KAHUKU TRN*      N/A     73  70  88 W10G21      N/A
KAWAILOA*        N/A     72  68  88 NE9G17      N/A
KII*             N/A     79  72  78 NE17        N/A
MAKUA RANGE*     N/A     75  68  78 NW6G14      N/A
OAHU FOREST NW NOT AVBL
SCHOFIELD BRK*   N/A     82  79  89 MISG        N/A  HX  93
SCHOFIELD S*   NOT AVBL
WAIANAE VLY*   NOT AVBL
KUAOKALA*      NOT AVBL
HONOULIUULI*   NOT AVBL
MOKUOLOE IS*   NOT AVBL
PALEHUA*       NOT AVBL
WAIAWA PHB*    NOT AVBL
$$

HIZ012>013-261700-
MOLOKAI-

CITY           SKY/WX    TMP DP  RH WIND       PRES   REMARKS
MOLOKAI AIRPT  PTCLDY    76  70  82 NE9       30.01S
KALAUPAPA      NOT AVBL
MAKAPULAPAI*   NOT AVBL
MOLOKAI 1*     NOT AVBL
PUU ALII*      NOT AVBL
$$

HIZ016-261700-
KAHOOLAWE-

CITY           SKY/WX    TMP DP  RH WIND       PRES   REMARKS
KAHOOLAWE*     NOT AVBL
HAKIOAWA*      NOT AVBL
HONOKANAIA*      N/A     76  67  74 VRB6G17   29.91S
KANELOA*         N/A     75  70  83 NE17G23   30.03S
KEALIALALO*    NOT AVBL
LUA MAKIKA*    NOT AVBL
$$

HIZ014>015-261700-
LANAI-

CITY           SKY/WX    TMP DP  RH WIND       PRES   REMARKS
LANAI CITY     FAIR      70  67  90 E7        30.04S
LANAI 1*       NOT AVBL
$$

HIZ017>028-261700-
MAUI-

CITY           SKY/WX    TMP DP  RH WIND       PRES   REMARKS
KAHULUI        PTCLDY    75  69  81 NE14      29.98F
KAPALUA-W MAUI MOCLDY    72  68  88 CALM      29.99
HANA AIRPORT   NOT AVBL
HANA*            N/A     75 N/A N/A NE8G15      N/A
HALEAKALA SUMM   N/A     43  43 100 NE23        N/A
MAALAEA BAY*   NOT AVBL
HALEAKALA*     NOT AVBL
KAUPO GAP*     NOT AVBL
KULA 1*          N/A     51  40  67 E3          N/A
$$

HIZ023>026-261700-
BIG ISLAND OF HAWAII COAST AND LOWER SLOPES-

CITY           SKY/WX    TMP DP  RH WIND       PRES   REMARKS
KAILUA KONA    PTCLDY    74  68  81 E3        29.94R
HILO           RAIN      70  66  87 S3        30.01R FOG
HONOKAA*         N/A     68 N/A N/A VRB1        N/A
KAWAIHAE MWT*    N/A     79 N/A N/A E18G26      N/A
KAWAIHAE*      NOT AVBL
SOUTH POINT*     N/A     70 N/A N/A N13         N/A
UPOLU AIRPORT* NOT AVBL
KAMUELA*       PTSUNNY   63  61  94 E9        30.08R
HAKALAU*         N/A     46  45  93 W5          N/A
KALOKO-HONOKO* NOT AVBL
PALI 2*          N/A     64  57  77 S12G18      N/A
KEALAKOMO*       N/A     77  63  61 N17G24      N/A
KAUPULEHU*     NOT AVBL
KAPAPALA*        N/A     64  55  72 VRB7        N/A
LOWER KAHUKU*  NOT AVBL
PUHE CS*       NOT AVBL
PUHO CS*       NOT AVBL
PTA KEAMUKU*     N/A     61  55  82 CALM        N/A
WAIKOLOA*      NOT AVBL
$$

HIZ027>028-261700-
BIG ISLAND OF HAWAII INTERIOR AND SUMMMITS-

CITY           SKY/WX    TMP DP  RH WIND       PRES   REMARKS
BRADSHAW FIELD CLOUDY    45  29  53 SE5       30.30R
MK VISITOR CEN   N/A     46   9  21 N3          N/A
MAUNA KEA*       N/A     41  -9  11 NE1         N/A
MAUNA LOA*       N/A     45  -6  12 MISG        N/A
MAUNA LOA 1*   NOT AVBL
PTA KIPUKA*      N/A     54  50  87 SE6         N/A
PTA RANGE 17*    N/A     55  50  82 E9G21       N/A
PTA WEST*        N/A     61  50  67 E12G22      N/A
NENE CABIN*    NOT AVBL
AHUMOA*        NOT AVBL
PTA PORTABLE*  NOT AVBL
PUU MALI*        N/A     59  37  44 E17G29      N/A
$$

HIC003-261700-
NORTHWEST ISLANDS-

CITY           SKY/WX    TMP DP  RH WIND       PRES   REMARKS
MIDWAY ISLAND  MOCLDY    77  72  83 NE8       30.15R
MIDWAY NOS*    NOT AVBL
FRENCH FRIGATE NOT AVBL
$$

PHZ110>124-180-261700-
BUOY REPORTS

STATION/POSITION TIME  TEMP    WIND        PRES    WAVE   SWELL
                       AIR SEA DIR/SP/G            HT/PER HT/DIR
                 (UTC) (F)     (DEG/KT/KT) (MB)    (FT/S) (FT/D)
BUOY 51001       NOT AVBL
BUOY 51101       1550   78 80   60/ 12/ 14 1018.0R   6/ 9   5/340
BUOY 51100       NOT AVBL
BUOY 51002       NOT AVBL
BUOY 51003       1550   80 82   50/ 16/ 19 1013.8R   6/ 7   3/ 90
BUOY 51004       1550   78 81   30/ 14/ 16 1013.4R   7/ 8   7/ 70
BARBERS PT BUOY  NOT AVBL
WAIMEA BAY BUOY  1504      81                N/A     4/10   2/340
KAILUA BAY BUOY  1504      81                N/A     6/ 6   2/ 40
LANAI BUOY       1545      81                N/A     2/14   2/200
BARBERS PT 2     NOT AVBL
PAUWELA MAUI     1509      80                N/A     6/ 9   2/350
HILO             1512      81                N/A     6/ 8   2/ 20
KANEOHE BAY BUOY 1506      80                N/A     5/ 8   2/ 10
HANALEI KAUAI    NOT AVBL
KAHULUI HARBOR   1500   77 81   60/  5/ 10 1015.6R
HONOLULU HARBOR  1500   78 82   40/  4/  6 1016.1R
KILO NALU        NOT AVBL
HILO HARBOR      1500   72 80  220/  5/  6 1015.4R
MOKUOLOE         1500   78 83   70/ 15/ 19 1016.0R
NAWILIWILI       1500   78 82   40/ 10/ 15 1016.4F
WHOTS BUOY       NOT AVBL
BUOY 51028       NOT AVBL
$$

......................KEY........................................
  SKY/WX - SKY CONDITIONS/PRESENT WEATHER
  TMP    - TEMPERATURE IN FAHRENHEIT
  DWPT   - DEWPOINT IN FAHRENHEIT
  RH     - RELATIVE HUMIDITY IN PERCENT
  WIND   - DIRECTION AND SPEED /MPH FOR ISLANDS...KTS FOR BUOYS/
  PRES   - MEAN SEA LEVEL PRESSURE IN INCHES OF HG
  VSB    - VISIBILITY IN MILES
  HX     - HEAT INDEX
  WCI    - WIND CHILL INDEX
  VRB    - VARIABLE WIND DIRECTION
  N/A    - NOT AVAILABLE



USA.gov is the U.S. government's official web portal to all federal, state and local government web resources and services.